UAE249 HKJK-HKMO

Flight info

Callsign UAE249
Flight time 0h 49m
Altitude 31000
Route ATUDU1D UVOVA UQ135 NEREV NEREV3A
Aircraft A359/H-V/N

Departure

Time 2026-04-28 10:29
Airport Jomo Kenyatta International Airport (HKJK)

Arrival

Time 2026-04-28 11:18
Airport Moi International Airport (HKMO)
Time Latitude Longitude Altitude Speed Heading
2026-04-28 09:48 -1.32904 36.92675 5371 ft 0 kts 230°
2026-04-28 09:56 -1.32901 36.92679 5347 ft 3 kts 231°
2026-04-28 09:56 -1.32889 36.92693 5344 ft 3 kts 231°
2026-04-28 09:56 -1.32875 36.92707 5343 ft 3 kts 199°
2026-04-28 09:57 -1.32855 36.92712 5342 ft 3 kts 171°
2026-04-28 09:57 -1.32842 36.92708 5342 ft 0 kts 145°
2026-04-28 09:59 -1.32852 36.92715 5341 ft 0 kts 144°
2026-04-28 10:02 -1.32865 36.92724 5347 ft 12 kts 143°
2026-04-28 10:03 -1.32884 36.92793 5344 ft 10 kts 70°
2026-04-28 10:03 -1.32843 36.92857 5345 ft 12 kts 51°
2026-04-28 10:03 -1.32789 36.92932 5342 ft 15 kts 54°
2026-04-28 10:03 -1.32725 36.93020 5343 ft 14 kts 55°
2026-04-28 10:04 -1.32739 36.93087 5341 ft 10 kts 130°
2026-04-28 10:04 -1.32798 36.93132 5342 ft 11 kts 144°
2026-04-28 10:04 -1.32864 36.93178 5343 ft 12 kts 155°
2026-04-28 10:04 -1.32924 36.93151 5342 ft 10 kts 223°
2026-04-28 10:05 -1.32967 36.93097 5344 ft 10 kts 243°
2026-04-28 10:05 -1.32951 36.93043 5343 ft 9 kts 310°
2026-04-28 10:05 -1.32899 36.93003 5343 ft 10 kts 324°
2026-04-28 10:05 -1.32840 36.92959 5345 ft 11 kts 325°
2026-04-28 10:06 -1.32770 36.92965 5344 ft 11 kts 25°
2026-04-28 10:06 -1.32695 36.92953 5343 ft 12 kts 329°
2026-04-28 10:06 -1.32623 36.92903 5344 ft 13 kts 324°
2026-04-28 10:06 -1.32549 36.92850 5343 ft 14 kts 324°
2026-04-28 10:07 -1.32469 36.92792 5343 ft 15 kts 324°
2026-04-28 10:07 -1.32404 36.92714 5343 ft 14 kts 274°
2026-04-28 10:07 -1.32444 36.92628 5344 ft 13 kts 234°
2026-04-28 10:07 -1.32498 36.92551 5346 ft 14 kts 235°
2026-04-28 10:08 -1.32553 36.92474 5347 ft 14 kts 234°
2026-04-28 10:08 -1.32609 36.92397 5348 ft 14 kts 233°
2026-04-28 10:08 -1.32676 36.92357 5345 ft 10 kts 177°
2026-04-28 10:08 -1.32685 36.92360 5349 ft 0 kts 165°
2026-04-28 10:09 -1.32704 36.92369 5347 ft 12 kts 150°
2026-04-28 10:09 -1.32772 36.92379 5345 ft 9 kts 205°
2026-04-28 10:10 -1.32799 36.92354 5346 ft 0 kts 229°
2026-04-28 10:10 -1.32808 36.92342 5350 ft 13 kts 232°
2026-04-28 10:11 -1.32841 36.92297 5351 ft 6 kts 238°
2026-04-28 10:11 -1.32845 36.92257 5349 ft 5 kts 287°
2026-04-28 10:11 -1.32820 36.92227 5352 ft 6 kts 321°
2026-04-28 10:11 -1.32780 36.92209 5349 ft 6 kts 352°
2026-04-28 10:12 -1.32717 36.92242 5351 ft 10 kts 40°
2026-04-28 10:12 -1.32694 36.92278 5349 ft 9 kts 58°
2026-04-28 10:12 -1.32658 36.92329 5350 ft 8 kts 54°
2026-04-28 10:12 -1.32622 36.92379 5348 ft 10 kts 54°
2026-04-28 10:13 -1.32575 36.92444 5347 ft 13 kts 54°
2026-04-28 10:13 -1.32541 36.92491 5347 ft 7 kts 54°
2026-04-28 10:13 -1.32521 36.92519 5347 ft 3 kts 54°
2026-04-28 10:13 -1.32503 36.92543 5344 ft 5 kts 54°
2026-04-28 10:14 -1.32480 36.92574 5346 ft 6 kts 54°
2026-04-28 10:14 -1.32461 36.92600 5345 ft 8 kts 54°
2026-04-28 10:14 -1.32409 36.92672 5344 ft 12 kts 54°
2026-04-28 10:14 -1.32348 36.92756 5344 ft 3 kts 53°
2026-04-28 10:15 -1.32323 36.92790 5343 ft 21 kts 53°
2026-04-28 10:15 -1.32281 36.92850 5341 ft 10 kts 55°
2026-04-28 10:15 -1.32235 36.92913 5341 ft 17 kts 52°
2026-04-28 10:15 -1.32116 36.92924 5337 ft 16 kts 316°
2026-04-28 10:16 -1.32016 36.92844 5340 ft 11 kts 326°
2026-04-28 10:16 -1.31913 36.92820 5340 ft 31 kts 23°
2026-04-28 10:16 -1.31669 36.93130 5317 ft 54 kts 52°
2026-04-28 10:16 -1.31470 36.93402 5315 ft 35 kts 55°
2026-04-28 10:17 -1.31337 36.93576 5316 ft 24 kts 53°
2026-04-28 10:17 -1.31193 36.93609 5314 ft 23 kts 355°
2026-04-28 10:17 -1.31086 36.93631 5310 ft 12 kts 34°
2026-04-28 10:17 -1.31055 36.93705 5312 ft 10 kts 95°
2026-04-28 10:18 -1.31073 36.93751 5311 ft 6 kts 129°
2026-04-28 10:18 -1.31078 36.93758 5310 ft 0 kts 132°
2026-04-28 10:18 -1.31084 36.93763 5314 ft 5 kts 134°
2026-04-28 10:18 -1.31089 36.93768 5312 ft 0 kts 137°
2026-04-28 10:26 -1.31133 36.93835 5311 ft 12 kts 92°
2026-04-28 10:26 -1.31109 36.93911 5308 ft 27 kts 54°
2026-04-28 10:26 -1.30962 36.94086 5306 ft 32 kts 54°
2026-04-28 10:27 -1.30833 36.94270 5302 ft 33 kts 54°
2026-04-28 10:27 -1.30701 36.94449 5302 ft 24 kts 53°
2026-04-28 10:27 -1.30598 36.94542 5303 ft 15 kts 26°
2026-04-28 10:27 -1.30584 36.94579 5302 ft 2 kts 153°
2026-04-28 10:28 -1.30633 36.94552 5303 ft 23 kts 225°
2026-04-28 10:28 -1.30886 36.94199 5304 ft 105 kts 233°
2026-04-28 10:28 -1.31472 36.93397 5318 ft 178 kts 234°
2026-04-28 10:29 -1.33229 36.91043 6241 ft 221 kts 232°
2026-04-28 10:29 -1.34225 36.89930 6800 ft 223 kts 214°
2026-04-28 10:29 -1.35689 36.89254 7031 ft 243 kts 200°
2026-04-28 10:29 -1.37343 36.88660 7235 ft 263 kts 200°
2026-04-28 10:30 -1.39106 36.87993 7531 ft 277 kts 202°
2026-04-28 10:30 -1.40924 36.87264 7890 ft 283 kts 203°
2026-04-28 10:30 -1.42756 36.86506 8473 ft 286 kts 203°
2026-04-28 10:30 -1.44599 36.85731 9050 ft 289 kts 204°
2026-04-28 10:31 -1.46516 36.85067 9614 ft 294 kts 193°
2026-04-28 10:31 -1.48542 36.84927 10142 ft 299 kts 175°
2026-04-28 10:31 -1.50582 36.85469 10426 ft 312 kts 155°
2026-04-28 10:31 -1.52385 36.86764 10625 ft 328 kts 133°
2026-04-28 10:32 -1.53652 36.88712 10819 ft 342 kts 113°
2026-04-28 10:32 -1.54443 36.90993 11099 ft 351 kts 107°
2026-04-28 10:32 -1.55153 36.93354 11483 ft 357 kts 107°
2026-04-28 10:32 -1.55874 36.95738 11938 ft 360 kts 107°
2026-04-28 10:33 -1.56610 36.98131 12396 ft 362 kts 107°
2026-04-28 10:33 -1.57354 37.00526 12805 ft 366 kts 107°
2026-04-28 10:33 -1.58120 37.02972 13226 ft 370 kts 107°
2026-04-28 10:33 -1.58891 37.05430 13699 ft 371 kts 108°
2026-04-28 10:34 -1.59668 37.07902 14154 ft 373 kts 108°
2026-04-28 10:34 -1.60450 37.10388 14527 ft 376 kts 107°
2026-04-28 10:34 -1.61238 37.12893 14882 ft 380 kts 107°
2026-04-28 10:34 -1.62023 37.15387 15297 ft 380 kts 107°
2026-04-28 10:35 -1.62818 37.17911 15726 ft 382 kts 107°
2026-04-28 10:35 -1.63618 37.20453 16109 ft 384 kts 107°
2026-04-28 10:35 -1.64424 37.23015 16478 ft 387 kts 107°
2026-04-28 10:35 -1.65232 37.25581 16900 ft 388 kts 107°
2026-04-28 10:36 -1.66042 37.28155 17337 ft 389 kts 108°
2026-04-28 10:36 -1.66856 37.30742 17671 ft 392 kts 107°
2026-04-28 10:36 -1.67679 37.33355 18042 ft 394 kts 108°
2026-04-28 10:36 -1.68495 37.35948 18418 ft 395 kts 107°
2026-04-28 10:37 -1.69322 37.38575 18757 ft 397 kts 107°
2026-04-28 10:37 -1.70151 37.41211 19077 ft 399 kts 107°
2026-04-28 10:37 -1.70985 37.43860 19414 ft 400 kts 107°
2026-04-28 10:37 -1.71820 37.46513 19760 ft 401 kts 107°
2026-04-28 10:38 -1.72657 37.49173 20091 ft 402 kts 107°
2026-04-28 10:38 -1.73498 37.51846 20425 ft 403 kts 107°
2026-04-28 10:38 -1.74339 37.54522 20740 ft 404 kts 107°
2026-04-28 10:38 -1.75187 37.57216 21037 ft 406 kts 107°
2026-04-28 10:39 -1.76035 37.59912 21375 ft 407 kts 107°
2026-04-28 10:39 -1.76957 37.62592 21682 ft 408 kts 112°
2026-04-28 10:39 -1.78373 37.65052 21970 ft 410 kts 127°
2026-04-28 10:39 -1.80187 37.67210 22241 ft 412 kts 132°
2026-04-28 10:40 -1.82180 37.69281 22503 ft 415 kts 135°
2026-04-28 10:40 -1.84245 37.71293 22861 ft 414 kts 136°
2026-04-28 10:40 -1.86329 37.73287 23187 ft 415 kts 136°
2026-04-28 10:40 -1.88420 37.75295 23391 ft 418 kts 136°
2026-04-28 10:41 -1.90514 37.77329 23642 ft 420 kts 135°
2026-04-28 10:41 -1.92601 37.79380 23916 ft 421 kts 135°
2026-04-28 10:41 -1.94685 37.81446 24144 ft 422 kts 135°
2026-04-28 10:41 -1.96768 37.83522 24359 ft 424 kts 135°
2026-04-28 10:42 -1.98866 37.85617 24584 ft 426 kts 135°
2026-04-28 10:42 -2.00966 37.87715 24823 ft 427 kts 135°
2026-04-28 10:42 -2.03072 37.89818 25069 ft 428 kts 135°
2026-04-28 10:42 -2.05185 37.91928 25290 ft 430 kts 135°
2026-04-28 10:43 -2.07307 37.94046 25523 ft 431 kts 135°
2026-04-28 10:43 -2.09414 37.96148 25766 ft 433 kts 135°
2026-04-28 10:43 -2.11551 37.98280 26028 ft 434 kts 135°
2026-04-28 10:43 -2.13690 38.00414 26320 ft 434 kts 135°
2026-04-28 10:44 -2.15838 38.02557 26525 ft 437 kts 135°
2026-04-28 10:44 -2.17995 38.04709 26780 ft 438 kts 135°
2026-04-28 10:44 -2.20158 38.06866 27044 ft 439 kts 135°
2026-04-28 10:44 -2.22321 38.09025 27321 ft 440 kts 135°
2026-04-28 10:45 -2.24497 38.11196 27563 ft 442 kts 135°
2026-04-28 10:45 -2.26682 38.13377 27770 ft 445 kts 135°
2026-04-28 10:45 -2.28876 38.15567 28038 ft 447 kts 135°
2026-04-28 10:45 -2.31079 38.17765 28326 ft 448 kts 135°
2026-04-28 10:46 -2.33288 38.19969 28551 ft 450 kts 135°
2026-04-28 10:46 -2.35508 38.22185 28801 ft 452 kts 135°
2026-04-28 10:46 -2.37710 38.24384 29078 ft 453 kts 135°
2026-04-28 10:46 -2.39945 38.26615 29382 ft 454 kts 134°
2026-04-28 10:47 -2.42192 38.28857 29663 ft 456 kts 135°
2026-04-28 10:47 -2.44444 38.31106 29885 ft 459 kts 135°
2026-04-28 10:47 -2.46709 38.33367 30136 ft 461 kts 135°
2026-04-28 10:47 -2.48978 38.35632 30418 ft 461 kts 135°
2026-04-28 10:48 -2.51251 38.37902 30634 ft 464 kts 134°
2026-04-28 10:48 -2.53542 38.40190 30823 ft 466 kts 134°
2026-04-28 10:48 -2.55805 38.42450 30901 ft 451 kts 134°
2026-04-28 10:48 -2.57990 38.44631 30909 ft 437 kts 134°
2026-04-28 10:49 -2.60134 38.46771 30904 ft 433 kts 134°
2026-04-28 10:49 -2.64405 38.51038 30895 ft 434 kts 134°
2026-04-28 10:50 -2.68682 38.55311 30895 ft 434 kts 134°
2026-04-28 10:50 -2.72957 38.59581 30895 ft 434 kts 135°
2026-04-28 10:51 -2.77211 38.63832 30895 ft 435 kts 135°
2026-04-28 10:51 -2.81491 38.68108 30889 ft 434 kts 135°
2026-04-28 10:52 -2.85754 38.72368 30890 ft 433 kts 135°
2026-04-28 10:52 -2.90014 38.76625 30884 ft 433 kts 135°
2026-04-28 10:53 -2.94282 38.80891 30883 ft 433 kts 135°
2026-04-28 10:53 -2.98549 38.85157 30885 ft 433 kts 135°
2026-04-28 10:54 -3.02789 38.89396 30887 ft 432 kts 135°
2026-04-28 10:54 -3.07035 38.93640 30868 ft 428 kts 135°
2026-04-28 10:54 -3.09120 38.95725 30391 ft 419 kts 135°
2026-04-28 10:55 -3.11180 38.97786 29201 ft 419 kts 135°
2026-04-28 10:55 -3.13262 38.99867 27646 ft 427 kts 135°
2026-04-28 10:55 -3.15378 39.01984 26135 ft 432 kts 135°
2026-04-28 10:55 -3.17521 39.04126 24591 ft 439 kts 135°
2026-04-28 10:56 -3.19699 39.06305 23014 ft 445 kts 135°
2026-04-28 10:56 -3.21893 39.08500 21446 ft 445 kts 135°
2026-04-28 10:56 -3.24048 39.10655 20103 ft 441 kts 135°
2026-04-28 10:56 -3.26214 39.12799 18832 ft 436 kts 136°
2026-04-28 10:57 -3.28393 39.14880 17567 ft 429 kts 137°
2026-04-28 10:57 -3.30548 39.16889 16135 ft 419 kts 139°
2026-04-28 10:57 -3.32671 39.18856 14702 ft 413 kts 139°
2026-04-28 10:57 -3.34745 39.20805 13667 ft 401 kts 139°
2026-04-28 10:58 -3.36750 39.22703 13153 ft 392 kts 139°
2026-04-28 10:58 -3.38712 39.24562 12604 ft 385 kts 140°
2026-04-28 10:58 -3.40640 39.26394 12032 ft 379 kts 139°
2026-04-28 10:58 -3.42515 39.28194 11511 ft 361 kts 140°
2026-04-28 10:59 -3.43695 39.29301 11222 ft 340 kts 141°
2026-04-28 10:59 -3.45858 39.31334 10770 ft 305 kts 140°
2026-04-28 10:59 -3.47326 39.32742 10524 ft 280 kts 140°
2026-04-28 10:59 -3.48674 39.34045 10323 ft 262 kts 140°
2026-04-28 11:00 -3.49994 39.35318 10176 ft 263 kts 137°
2026-04-28 11:00 -3.50856 39.36178 10088 ft 263 kts 137°
2026-04-28 11:00 -3.52142 39.37480 9976 ft 262 kts 139°
2026-04-28 11:00 -3.53434 39.38759 9837 ft 261 kts 138°
2026-04-28 11:01 -3.54808 39.40089 9719 ft 286 kts 139°
2026-04-28 11:01 -3.56223 39.41452 9313 ft 278 kts 139°
2026-04-28 11:01 -3.57648 39.42824 8868 ft 288 kts 139°
2026-04-28 11:01 -3.59096 39.44217 8512 ft 288 kts 139°
2026-04-28 11:02 -3.60534 39.45601 8105 ft 285 kts 139°
2026-04-28 11:02 -3.62190 39.46556 7825 ft 279 kts 168°
2026-04-28 11:02 -3.64100 39.46762 7594 ft 274 kts 177°
2026-04-28 11:02 -3.65981 39.47109 7422 ft 276 kts 164°
2026-04-28 11:03 -3.67663 39.47969 6997 ft 270 kts 145°
2026-04-28 11:03 -3.68937 39.49346 6525 ft 272 kts 130°
2026-04-28 11:03 -3.70049 39.50894 6186 ft 274 kts 127°
2026-04-28 11:03 -3.71134 39.52464 5861 ft 272 kts 127°
2026-04-28 11:04 -3.72202 39.54016 5568 ft 271 kts 127°
2026-04-28 11:04 -3.73275 39.55578 5273 ft 272 kts 127°
2026-04-28 11:04 -3.74334 39.57118 4985 ft 271 kts 128°
2026-04-28 11:04 -3.75406 39.58675 4708 ft 270 kts 127°
2026-04-28 11:05 -3.76466 39.60217 4383 ft 267 kts 127°
2026-04-28 11:05 -3.77547 39.61707 4074 ft 262 kts 133°
2026-04-28 11:05 -3.78948 39.62861 3678 ft 262 kts 146°
2026-04-28 11:05 -3.80414 39.64032 2902 ft 275 kts 139°
2026-04-28 11:06 -3.81846 39.65307 2458 ft 271 kts 138°
2026-04-28 11:06 -3.83193 39.66520 2472 ft 247 kts 138°
2026-04-28 11:06 -3.84411 39.67589 2502 ft 219 kts 142°
2026-04-28 11:06 -3.85637 39.68274 2311 ft 195 kts 161°
2026-04-28 11:07 -3.86891 39.68334 2205 ft 168 kts 187°
2026-04-28 11:07 -3.87937 39.68097 2180 ft 142 kts 194°
2026-04-28 11:07 -3.88790 39.67676 2184 ft 135 kts 206°
2026-04-28 11:07 -3.89600 39.67202 2175 ft 135 kts 206°
2026-04-28 11:08 -3.90411 39.66744 2163 ft 132 kts 206°
2026-04-28 11:08 -3.91199 39.66309 2171 ft 124 kts 204°
2026-04-28 11:08 -3.91929 39.65908 2168 ft 116 kts 204°
2026-04-28 11:08 -3.92629 39.65521 2062 ft 115 kts 206°
2026-04-28 11:09 -3.93325 39.65131 1938 ft 114 kts 206°
2026-04-28 11:09 -3.94013 39.64742 1767 ft 113 kts 205°
2026-04-28 11:09 -3.94690 39.64362 1629 ft 114 kts 207°
2026-04-28 11:09 -3.95404 39.63961 1482 ft 117 kts 206°
2026-04-28 11:10 -3.96108 39.63565 1323 ft 115 kts 208°
2026-04-28 11:10 -3.96803 39.63174 1198 ft 115 kts 207°
2026-04-28 11:10 -3.97500 39.62782 1043 ft 117 kts 206°
2026-04-28 11:10 -3.98225 39.62376 923 ft 122 kts 210°
2026-04-28 11:11 -3.98952 39.61965 754 ft 118 kts 206°
2026-04-28 11:11 -3.99671 39.61562 623 ft 118 kts 207°
2026-04-28 11:11 -4.00350 39.61176 452 ft 107 kts 206°
2026-04-28 11:11 -4.01018 39.60791 511 ft 123 kts 210°
2026-04-28 11:12 -4.01928 39.60269 827 ft 183 kts 207°
2026-04-28 11:12 -4.03163 39.59604 1465 ft 205 kts 207°
2026-04-28 11:12 -4.04370 39.58933 1966 ft 192 kts 207°
2026-04-28 11:12 -4.05510 39.58294 2155 ft 183 kts 207°
2026-04-28 11:13 -4.06633 39.57721 2209 ft 181 kts 205°
2026-04-28 11:13 -4.07825 39.57657 2608 ft 181 kts 147°
2026-04-28 11:13 -4.08265 39.58865 3109 ft 211 kts 86°
2026-04-28 11:13 -4.07794 39.60381 3289 ft 253 kts 67°
2026-04-28 11:14 -4.06791 39.61918 3119 ft 269 kts 47°
2026-04-28 11:14 -4.05146 39.62882 2566 ft 277 kts 17°
2026-04-28 11:14 -4.03261 39.63348 2232 ft 280 kts 11°
2026-04-28 11:14 -4.01358 39.63742 2166 ft 281 kts 12°
2026-04-28 11:15 -3.99440 39.64131 2163 ft 281 kts 11°
2026-04-28 11:15 -3.97527 39.64509 2157 ft 280 kts 12°
2026-04-28 11:15 -3.95641 39.64968 1919 ft 278 kts 16°
2026-04-28 11:15 -3.93837 39.65152 2036 ft 249 kts 341°
2026-04-28 11:16 -3.92938 39.64056 2262 ft 188 kts 251°
2026-04-28 11:16 -3.93831 39.63488 1704 ft 168 kts 174°
2026-04-28 11:16 -3.95018 39.63667 1192 ft 165 kts 174°
2026-04-28 11:16 -3.96069 39.63534 1056 ft 145 kts 201°
2026-04-28 11:17 -3.96915 39.63050 918 ft 134 kts 211°
2026-04-28 11:17 -3.97697 39.62589 850 ft 129 kts 205°
2026-04-28 11:17 -3.98520 39.62185 798 ft 133 kts 204°
2026-04-28 11:17 -3.99294 39.61767 628 ft 122 kts 208°
2026-04-28 11:18 -3.99998 39.61355 475 ft 109 kts 207°
2026-04-28 11:18 -4.00615 39.61013 358 ft 101 kts 208°
2026-04-28 11:18 -4.01263 39.60658 240 ft 107 kts 207°
2026-04-28 11:18 -4.01771 39.60377 217 ft 39 kts 208°
2026-04-28 11:19 -4.01900 39.60309 214 ft 20 kts 208°
2026-04-28 11:19 -4.01959 39.60316 215 ft 7 kts 147°
2026-04-28 11:19 -4.01974 39.60354 209 ft 7 kts 102°
2026-04-28 11:19 -4.02008 39.60419 218 ft 19 kts 161°
2026-04-28 11:20 -4.02242 39.60318 219 ft 36 kts 209°
2026-04-28 11:20 -4.02518 39.60164 220 ft 45 kts 210°
2026-04-28 11:20 -4.02716 39.60054 215 ft 32 kts 210°
2026-04-28 11:20 -4.02870 39.60090 218 ft 22 kts 124°
2026-04-28 11:21 -4.02922 39.60160 216 ft 11 kts 135°
2026-04-28 11:21 -4.02988 39.60158 210 ft 10 kts 211°
2026-04-28 11:21 -4.03013 39.60144 214 ft 0 kts 209°
2026-04-28 11:21 -4.03025 39.60136 216 ft 3 kts 214°
2026-04-28 11:22 -4.03037 39.60086 211 ft 8 kts 285°
2026-04-28 11:22 -4.03034 39.60079 215 ft 0 kts 293°